P4MALC GEML-GMAD

Flight info

Callsign P4MALC
Flight time N/A
Altitude 18000
Route BERUM UG850 MAK/N0200F190 G850 BIDLA UG850 OLOMA
Aircraft BT36/L-BDFGLORY/S

Departure

Time 2026-05-04 15:53
Airport Melilla Airport (GEML)

Arrival

Time N/A
Airport Al Massira Airport (GMAD)
Time Latitude Longitude Altitude Speed Heading
2026-05-04 15:40 35.27844 -2.95704 169 ft 0 kts 326°
2026-05-04 15:48 35.27846 -2.95705 169 ft 2 kts 336°
2026-05-04 15:49 35.27821 -2.95674 169 ft 13 kts 149°
2026-05-04 15:49 35.27861 -2.95641 165 ft 0 kts 11°
2026-05-04 15:51 35.27876 -2.95638 164 ft 8 kts 10°
2026-05-04 15:51 35.27871 -2.95536 160 ft 24 kts 147°
2026-05-04 15:52 35.27696 -2.95393 150 ft 32 kts 146°
2026-05-04 15:52 35.27530 -2.95249 138 ft 22 kts 135°
2026-05-04 15:52 35.27496 -2.95228 135 ft 11 kts 321°
2026-05-04 15:52 35.27738 -2.95431 165 ft 77 kts 323°
2026-05-04 15:53 35.28320 -2.95906 281 ft 113 kts 324°
2026-05-04 15:53 35.28924 -2.96392 929 ft 100 kts 321°
2026-05-04 15:53 35.29545 -2.96791 1443 ft 102 kts 332°
2026-05-04 15:53 35.30135 -2.97231 1920 ft 100 kts 297°
2026-05-04 15:54 35.30082 -2.98047 2443 ft 100 kts 254°
2026-05-04 15:54 35.29993 -2.98873 2935 ft 96 kts 264°
2026-05-04 15:54 35.29893 -2.99689 3436 ft 97 kts 263°
2026-05-04 15:54 35.29793 -3.00516 3920 ft 97 kts 262°
2026-05-04 15:55 35.29687 -3.01321 4409 ft 97 kts 263°
2026-05-04 15:55 35.29586 -3.02140 4908 ft 98 kts 263°
2026-05-04 15:55 35.29483 -3.02965 5394 ft 98 kts 262°
2026-05-04 15:55 35.29376 -3.03790 5897 ft 97 kts 261°
2026-05-04 15:56 35.29270 -3.04612 6395 ft 98 kts 260°
2026-05-04 15:56 35.29165 -3.05436 6861 ft 100 kts 259°
2026-05-04 15:56 35.29055 -3.06292 7336 ft 103 kts 259°
2026-05-04 15:56 35.28943 -3.07161 7822 ft 104 kts 259°
2026-05-04 15:57 35.28830 -3.08039 8313 ft 105 kts 259°
2026-05-04 15:57 35.28717 -3.08914 8811 ft 104 kts 259°
2026-05-04 15:57 35.28604 -3.09789 9317 ft 105 kts 259°
2026-05-04 15:57 35.28490 -3.10674 9830 ft 106 kts 260°
2026-05-04 15:58 35.28374 -3.11569 10309 ft 106 kts 259°
2026-05-04 15:58 35.28259 -3.12463 10787 ft 107 kts 259°
2026-05-04 15:58 35.28145 -3.13359 11269 ft 106 kts 258°
2026-05-04 15:58 35.28030 -3.14227 11810 ft 101 kts 258°
2026-05-04 15:59 35.27921 -3.15055 12346 ft 96 kts 258°
2026-05-04 15:59 35.27819 -3.15834 12887 ft 92 kts 257°
2026-05-04 15:59 35.27722 -3.16585 13438 ft 86 kts 256°
2026-05-04 15:59 35.27630 -3.17290 13976 ft 81 kts 256°
2026-05-04 16:00 35.27543 -3.17944 14466 ft 74 kts 256°
2026-05-04 16:00 35.27464 -3.18540 14945 ft 70 kts 255°
2026-05-04 16:00 35.27386 -3.19156 15301 ft 77 kts 256°
2026-05-04 16:00 35.27303 -3.19826 15670 ft 82 kts 256°
2026-05-04 16:01 35.27214 -3.20527 16059 ft 85 kts 256°
2026-05-04 16:01 35.27119 -3.21251 16443 ft 88 kts 256°
2026-05-04 16:01 35.27022 -3.22000 16831 ft 90 kts 256°
2026-05-04 16:01 35.26923 -3.22758 17216 ft 92 kts 256°
2026-05-04 16:02 35.26820 -3.23540 17613 ft 94 kts 256°
2026-05-04 16:02 35.26716 -3.24341 18013 ft 96 kts 256°
2026-05-04 16:02 35.26501 -3.25992 18758 ft 99 kts 256°
2026-05-04 16:03 35.26392 -3.26828 19132 ft 99 kts 256°
2026-05-04 16:03 35.26283 -3.27662 19510 ft 99 kts 256°
2026-05-04 16:03 35.26174 -3.28492 19888 ft 99 kts 256°
2026-05-04 16:03 35.26065 -3.29318 20275 ft 98 kts 256°
2026-05-04 16:04 35.25959 -3.30134 20663 ft 96 kts 256°
2026-05-04 16:04 35.25751 -3.31718 21450 ft 92 kts 256°
2026-05-04 16:04 35.25651 -3.32475 21827 ft 91 kts 256°
2026-05-04 16:05 35.25550 -3.33247 22167 ft 93 kts 256°
2026-05-04 16:05 35.25447 -3.34039 22509 ft 94 kts 256°
2026-05-04 16:05 35.25237 -3.35638 23203 ft 96 kts 256°
2026-05-04 16:06 35.25132 -3.36441 23559 ft 96 kts 256°
2026-05-04 16:06 35.24852 -3.38567 24350 ft 94 kts 256°
2026-05-04 16:07 35.24713 -3.39620 24693 ft 97 kts 256°
2026-05-04 16:07 35.24359 -3.42322 25040 ft 126 kts 257°
2026-05-04 16:08 35.24212 -3.43436 25051 ft 137 kts 257°
2026-05-04 16:08 35.23721 -3.47150 25041 ft 154 kts 258°
2026-05-04 16:09 35.23374 -3.49768 25037 ft 158 kts 258°
2026-05-04 16:09 35.23019 -3.52442 25048 ft 160 kts 258°
2026-05-04 16:10 35.22659 -3.55145 25047 ft 161 kts 258°
2026-05-04 16:11 35.22117 -3.59210 25045 ft 161 kts 257°
2026-05-04 16:11 35.21936 -3.60553 25033 ft 160 kts 257°
2026-05-04 16:12 35.21401 -3.64561 25039 ft 160 kts 258°
2026-05-04 16:12 35.20865 -3.68561 25045 ft 160 kts 258°
2026-05-04 16:13 35.20505 -3.71248 25038 ft 159 kts 257°
2026-05-04 16:13 35.20143 -3.73932 25045 ft 161 kts 258°
2026-05-04 16:14 35.19778 -3.76648 25036 ft 163 kts 258°
2026-05-04 16:14 35.19408 -3.79385 25037 ft 163 kts 258°
2026-05-04 16:15 35.18768 -3.83461 25034 ft 163 kts 246°
2026-05-04 16:16 35.17130 -3.85399 25028 ft 168 kts 226°
2026-05-04 16:16 35.14356 -3.88041 25056 ft 168 kts 226°
2026-05-04 16:17 35.12506 -3.89804 25055 ft 169 kts 226°
2026-05-04 16:18 35.09723 -3.92453 25050 ft 170 kts 226°
2026-05-04 16:18 35.08788 -3.93341 25052 ft 170 kts 226°
2026-05-04 16:19 35.05971 -3.96020 25059 ft 171 kts 226°
2026-05-04 16:19 35.04107 -3.97791 25057 ft 171 kts 226°
2026-05-04 16:20 35.01300 -4.00455 25058 ft 171 kts 226°
2026-05-04 16:20 34.99423 -4.02235 25057 ft 170 kts 226°
2026-05-04 16:21 34.96612 -4.04898 25057 ft 172 kts 226°
2026-05-04 16:22 34.94750 -4.06661 25049 ft 166 kts 226°
2026-05-04 16:22 34.92047 -4.09225 25034 ft 167 kts 226°
2026-05-04 16:23 34.89251 -4.11868 25051 ft 172 kts 226°
2026-05-04 16:24 34.85477 -4.15435 25057 ft 173 kts 226°
2026-05-04 16:25 34.83581 -4.17221 25050 ft 172 kts 226°
2026-05-04 16:26 34.79774 -4.20813 25056 ft 174 kts 226°
2026-05-04 16:26 34.76926 -4.23494 25054 ft 171 kts 226°
2026-05-04 16:27 34.75044 -4.25267 25053 ft 171 kts 226°
2026-05-04 16:28 34.72198 -4.27946 25065 ft 176 kts 226°
2026-05-04 16:28 34.69250 -4.30706 25059 ft 181 kts 225°
2026-05-04 16:29 34.65351 -4.34376 25047 ft 173 kts 226°
2026-05-04 16:30 34.62499 -4.37048 25055 ft 173 kts 226°
2026-05-04 16:31 34.60581 -4.38845 25055 ft 174 kts 226°
2026-05-04 16:31 34.58022 -4.41244 25059 ft 175 kts 226°
2026-05-04 16:32 34.55143 -4.43935 25051 ft 174 kts 226°
2026-05-04 16:33 34.52907 -4.46029 25054 ft 175 kts 226°
2026-05-04 16:33 34.51299 -4.47527 25069 ft 177 kts 225°
2026-05-04 16:34 34.49330 -4.49371 25055 ft 179 kts 226°
2026-05-04 16:34 34.48347 -4.50287 25053 ft 178 kts 225°
2026-05-04 16:35 34.45432 -4.53004 25051 ft 175 kts 226°
2026-05-04 16:35 34.42531 -4.55706 25055 ft 175 kts 226°
2026-05-04 16:36 34.41579 -4.56597 25055 ft 175 kts 226°
2026-05-04 16:36 34.39647 -4.58394 25059 ft 175 kts 225°
2026-05-04 16:37 34.37711 -4.60183 25045 ft 175 kts 225°
2026-05-04 16:37 34.36739 -4.61080 25040 ft 176 kts 225°
2026-05-04 16:37 34.34786 -4.62879 25049 ft 176 kts 225°
2026-05-04 16:38 34.32831 -4.64678 25047 ft 177 kts 226°
2026-05-04 16:39 34.29927 -4.67351 25049 ft 175 kts 225°
2026-05-04 16:39 34.27984 -4.69138 25051 ft 176 kts 225°
2026-05-04 16:40 34.26034 -4.70929 25057 ft 176 kts 225°
2026-05-04 16:40 34.24079 -4.72724 25054 ft 175 kts 226°
2026-05-04 16:41 34.22140 -4.74504 25065 ft 175 kts 225°
2026-05-04 16:41 34.19236 -4.77168 25058 ft 176 kts 225°
2026-05-04 16:42 34.16307 -4.79851 25067 ft 176 kts 225°
2026-05-04 16:43 34.14350 -4.81643 25070 ft 176 kts 226°
2026-05-04 16:43 34.12400 -4.83427 25071 ft 175 kts 225°
2026-05-04 16:43 34.11427 -4.84317 25074 ft 175 kts 225°
2026-05-04 16:44 34.07511 -4.87897 25078 ft 178 kts 225°
2026-05-04 16:45 34.05531 -4.89707 25076 ft 179 kts 225°
2026-05-04 16:46 34.02556 -4.92418 25078 ft 178 kts 225°
2026-05-04 16:46 34.00574 -4.94227 25081 ft 179 kts 225°
2026-05-04 16:47 33.98594 -4.96031 25085 ft 180 kts 225°
2026-05-04 16:47 33.96597 -4.97850 25085 ft 180 kts 225°
2026-05-04 16:48 33.93597 -5.00580 25084 ft 180 kts 225°
2026-05-04 16:48 33.92623 -5.01513 25083 ft 176 kts 232°
2026-05-04 16:49 33.91040 -5.03732 25086 ft 175 kts 234°
2026-05-04 16:49 33.89447 -5.05946 25086 ft 175 kts 235°
2026-05-04 16:50 33.87865 -5.08147 25086 ft 175 kts 235°
2026-05-04 16:50 33.86273 -5.10362 25088 ft 175 kts 235°
2026-05-04 16:51 33.84685 -5.12568 25068 ft 175 kts 234°
2026-05-04 16:51 33.83890 -5.13672 25081 ft 175 kts 234°
2026-05-04 16:51 33.82293 -5.15890 25083 ft 175 kts 234°
2026-05-04 16:52 33.80703 -5.18095 25085 ft 176 kts 234°
2026-05-04 16:52 33.79903 -5.19205 25086 ft 176 kts 234°
2026-05-04 16:53 33.78302 -5.21424 25094 ft 176 kts 234°
2026-05-04 16:53 33.75893 -5.24760 25096 ft 176 kts 234°
2026-05-04 16:54 33.75091 -5.25872 25094 ft 176 kts 234°
2026-05-04 16:55 33.71882 -5.30310 25107 ft 176 kts 234°
2026-05-04 16:55 33.70289 -5.32511 25107 ft 176 kts 234°
2026-05-04 16:56 33.68680 -5.34735 25113 ft 177 kts 234°
2026-05-04 16:56 33.66256 -5.38079 25116 ft 177 kts 234°
2026-05-04 16:57 33.65449 -5.39190 25119 ft 177 kts 234°
2026-05-04 16:57 33.63834 -5.41418 25120 ft 177 kts 234°
2026-05-04 16:58 33.61411 -5.44754 25116 ft 176 kts 234°
2026-05-04 16:58 33.60615 -5.45851 25116 ft 176 kts 234°
2026-05-04 16:59 33.58998 -5.48076 25119 ft 177 kts 234°
2026-05-04 17:00 33.57916 -5.49564 25106 ft 177 kts 234°